RH
8 6 6 4 3 3 3 4 5 9 11 19 30 37 37 39 39 41 41 42 41 39 39 38 38 43 83
6 5 4 3 3 4 6 9 12 28 42 43 43 40 47 47 45 43 43 39 37 38 33 31 32 34 41
5 4 4 4 5 7 11 18 42 47 46 49 46 49 53 51 49 46 42 42 43 38 38 52 54 52 54
4 4 5 7 10 15 29 45 42 46 46 54 50 56 55 54 55 54 55 51 46 45 53 58 64 67 70
5 6 7 13 29 44 45 42 42 48 46 49 48 52 52 57 62 66 68 63 56 57 60 67 71 73 73
7 8 17 45 50 49 48 45 40 51 50 47 57 51 50 55 64 70 70 69 60 59 70 74 79 76 74
11 24 48 55 51 51 51 53 55 61 61 44 60 53 53 52 64 67 68 73 65 64 72 77 78 73 73
32 54 58 57 60 61 60 56 58 65 72 51 59 50 52 52 64 73 78 82 73 66 70 76 76 74 73
59 62 64 67 68 62 67 60 55 59 74 68 62 56 51 50 62 69 73 75 81 81 78 75 75 74 68
60 65 67 68 72 78 78 73 75 59 88 72 71 76 49 47 50 63 70 77 81 78 77 74 72 70 68
58 62 62 70 78 90 94 91 82 77 92 89 82 88 90 60 52 62 68 72 74 70 77 78 79 78 71
62 63 68 74 80 84 88 90 93 90 91 100 94 95 89 74 64 63 70 75 74 71 74 76 77 75 70
64 69 73 76 80 82 90 91 89 95 95 98 96 93 91 88 81 72 72 72 78 70 66 64 62 61 60
70 76 79 82 84 85 81 82 76 78 92 98 97 100 97 96 91 82 86 81 73 72 66 59 59 63 78
77 79 82 82 84 88 87 83 82 86 84 96 100 100 100 100 88 95 95 84 75 67 66 62 64 75 79
81 84 84 87 84 86 90 92 91 93 92 98 96 88 87 87 97 89 76 69 67 70 75 76 65 75 89
85 89 92 88 89 91 92 93 92 96 95 98 94 98 87 72 82 99 94 84 81 78 80 81 78 79 91
Wind_Speed
53 53 55 57 56 54 50 50 48 44 43 41 40 41 41 38 36 35 33 33 36 37 38 39 39 39 37
55 56 56 55 54 51 47 45 43 38 35 33 33 36 33 34 34 36 36 37 38 38 37 37 36 37 38
56 55 54 49 46 44 43 40 35 33 31 30 32 34 33 35 38 38 38 39 38 37 34 33 34 35 35
55 53 47 41 42 43 37 34 31 30 32 30 33 33 33 35 36 36 36 37 37 33 32 31 29 24 23
50 45 41 39 39 37 36 36 32 29 33 32 33 32 31 31 32 33 33 35 35 33 32 28 24 22 20
43 40 37 35 35 37 37 37 37 30 33 31 31 32 31 31 30 30 32 34 34 30 28 27 25 24 21
38 36 36 33 36 38 38 38 36 32 36 38 31 34 31 29 28 28 30 33 33 31 28 30 30 28 27
31 31 33 34 36 39 39 40 37 33 33 40 37 34 30 28 26 23 25 28 34 31 31 32 33 33 32
26 28 31 33 34 37 35 38 38 35 28 37 38 38 34 27 25 21 22 24 28 34 34 33 35 36 37
23 25 28 29 29 31 34 38 40 41 30 39 40 40 44 32 27 24 24 24 26 31 35 37 37 39 39
25 26 24 24 26 28 31 34 35 36 31 39 43 41 43 44 37 31 26 23 25 27 31 35 37 40 42
25 24 24 24 26 28 28 30 30 34 36 36 42 41 43 45 41 33 26 23 25 24 28 30 34 36 39
24 23 25 27 27 28 27 30 30 27 30 33 37 38 39 41 41 33 31 25 23 24 24 26 28 32 35
25 25 27 27 26 29 31 33 34 28 25 30 34 36 37 36 36 34 29 32 29 27 26 23 24 27 32
25 27 28 28 28 30 32 34 35 35 33 29 29 31 32 33 32 28 28 28 27 28 27 27 23 24 29
25 28 30 31 32 31 33 35 36 34 34 33 33 32 29 26 30 29 24 28 27 27 27 31 23 19 28
26 29 31 31 33 33 33 34 34 34 32 31 31 32 35 33 26 28 32 29 31 30 28 28 31 23 26
Wind_Direction
307 308 306 305 304 302 300 298 298 298 295 293 291 288 285 287 285 283 283 278 276 274 270 269 268 267 266
308 308 306 305 304 302 301 301 301 299 296 294 290 286 293 289 288 286 284 280 277 276 276 273 271 266 265
307 305 303 304 301 300 301 301 302 302 297 295 291 292 290 290 288 287 285 282 279 278 277 275 273 270 267
305 304 305 306 303 304 304 305 306 304 300 301 296 295 297 293 291 289 285 281 280 279 280 276 271 265 263
306 308 309 307 306 307 308 310 313 311 303 300 296 295 291 286 287 286 283 280 281 283 279 267 259 257 258
308 308 309 310 309 310 312 315 314 315 304 303 302 298 294 288 286 283 278 278 281 281 267 257 251 254 260
308 311 310 311 311 313 315 315 316 317 310 306 308 301 297 288 288 288 281 281 281 280 263 250 247 251 259
306 308 311 314 315 313 316 313 315 314 315 305 306 303 301 295 296 294 284 279 281 277 265 255 252 254 263
310 312 311 311 311 310 313 310 314 315 324 303 307 307 304 304 299 291 287 275 269 272 273 265 259 262 266
309 307 307 310 309 309 312 313 317 319 329 311 312 314 309 312 307 312 303 285 275 270 269 269 267 268 271
314 312 313 312 311 311 312 313 316 317 323 312 312 313 308 310 312 315 311 294 279 270 268 267 264 265 271
316 316 317 317 317 317 317 315 319 320 319 313 310 311 309 310 312 314 313 298 287 278 269 262 260 262 266
319 320 322 324 322 318 321 318 320 319 317 314 312 312 311 310 311 318 313 304 300 292 280 269 263 262 264
324 325 325 324 323 321 323 323 323 323 324 321 316 314 312 312 313 317 316 308 308 301 294 281 272 271 272
323 324 324 323 325 323 324 324 326 327 329 326 319 315 313 313 315 316 310 302 301 301 298 292 285 280 275
324 323 324 325 326 327 326 327 327 328 329 328 326 324 323 324 327 328 321 315 312 308 306 300 292 287 282
326 326 325 327 330 330 329 329 330 330 333 333 333 331 328 329 339 338 324 320 313 310 307 303 306 309 296